Stations météo

réclame
Mon MeteoGroup
Gourette, France (7775): Température de l'air & dewpoint: 20.08.2019 03:00:00 - 26.08.2019 03:00:00 (CEST)Gourette, France (7775): Vitesse du vent & gusts: 20.08.2019 03:00:00 - 26.08.2019 03:00:00 (CEST)Gourette, France (7775): Direction du vent: 20.08.2019 03:00:00 - 26.08.2019 03:00:00 (CEST)Gourette, France (7775): reduced air pressure: 20.08.2019 03:00:00 - 26.08.2019 03:00:00 (CEST)Gourette, France (7775): visibility: 20.08.2019 03:00:00 - 26.08.2019 03:00:00 (CEST)Gourette, France (7775): Quantités de précipitations: 20.08.2019 03:00:00 - 26.08.2019 03:00:00 (CEST)
Date & Time tt [°C] td [°C] ff [km/h] ff [knt] fx [km/h] fx [knt] dd ppp [hPa] vv [km] rr [mm]
26.08.2019 03:00:00 - - - - - - - - - -
26.08.2019 02:00:00 25,2 16,9 5 3 7 4 N 1016,6 - 0,0
26.08.2019 01:00:00 24,4 18,6 4 2 10 5 WSW 1016,9 - 0,0
26.08.2019 00:00:00 23,9 17,9 7 4 17 9 NW 1017,1 12 0,0
25.08.2019 23:00:00 24,5 18,7 15 8 21 11 NNW 1017,0 - 0,0
25.08.2019 22:00:00 24,7 19,3 16 9 20 11 NNW 1017,1 - 0,0
25.08.2019 21:00:00 25,1 19,7 11 6 14 7 NNW 1016,8 - 0,0
25.08.2019 20:00:00 25,9 19,8 5 3 11 6 N 1016,2 - 0,0
25.08.2019 19:00:00 27,4 20,2 8 4 14 8 N 1015,8 - 0,0
25.08.2019 18:00:00 27,7 21,0 9 5 19 10 NE 1015,8 - 0,0
25.08.2019 17:00:00 28,1 21,4 12 6 22 12 NNE 1015,7 - 0,0
25.08.2019 16:00:00 28,3 21,1 14 8 25 13 ENE 1015,5 - 0,0
25.08.2019 15:00:00 29,0 21,8 15 8 29 16 ENE 1015,9 - 0,0
25.08.2019 14:00:00 28,3 22,1 16 9 25 13 ENE 1016,4 12 0,0
25.08.2019 13:00:00 28,3 22,1 16 9 24 13 ENE 1016,6 - 0,0
25.08.2019 12:00:00 28,0 21,8 15 8 24 13 ENE 1016,9 - 0,0
25.08.2019 11:00:00 27,8 21,6 13 7 22 12 ENE 1017,1 12 0,0
25.08.2019 10:00:00 29,6 21,0 11 6 22 12 NNE 1017,0 - 0,0
25.08.2019 09:00:00 27,7 17,5 10 6 21 11 NNE 1016,8 - 0,0
25.08.2019 08:00:00 24,6 16,1 17 9 24 13 NNW 1016,3 12 0,0
25.08.2019 07:00:00 23,2 15,5 17 9 24 13 N 1016,2 - 0,0
25.08.2019 06:00:00 24,2 15,9 8 5 16 9 NW 1015,9 - 0,0
25.08.2019 05:00:00 22,8 16,6 7 4 14 8 NW 1016,0 12 0,0
25.08.2019 04:00:00 23,9 16,2 9 5 17 9 NNW 1016,0 - 0,0
25.08.2019 03:00:00 23,0 17,5 15 8 20 11 NNW 1016,4 - 0,0
25.08.2019 02:00:00 23,1 18,0 17 9 22 12 NNW 1016,7 - 0,0
25.08.2019 01:00:00 23,0 18,3 16 9 21 11 NNW 1017,0 - 0,0
25.08.2019 00:00:00 22,9 18,4 13 7 17 9 N 1017,1 - 0,0
24.08.2019 23:00:00 24,1 19,6 9 5 16 8 NW 1016,8 - 0,0
24.08.2019 22:00:00 23,8 19,9 12 6 14 8 NW 1016,9 - 0,0
24.08.2019 21:00:00 23,5 19,6 11 6 15 8 N 1016,7 - 0,0
24.08.2019 20:00:00 24,8 19,2 8 4 12 7 N 1016,4 10 0,0
24.08.2019 19:00:00 25,7 19,3 9 5 16 8 NNE 1016,4 - 0,0
24.08.2019 18:00:00 26,3 19,7 7 4 14 8 NNE 1016,5 - 0,0
24.08.2019 17:00:00 26,1 20,2 8 4 17 9 ENE 1016,9 10 0,0
24.08.2019 16:00:00 27,5 20,6 9 5 21 11 ESE 1017,0 - 0,0
24.08.2019 15:00:00 26,7 20,1 10 5 17 9 ESE 1017,3 - 0,0
24.08.2019 14:00:00 27,7 20,5 14 8 24 13 E 1017,7 - 0,0
24.08.2019 13:00:00 27,2 20,3 14 8 34 19 E 1017,9 - 0,0
24.08.2019 12:00:00 28,7 20,7 21 12 34 18 NNE 1018,0 - 0,0
24.08.2019 11:00:00 28,4 20,7 26 14 39 21 NNE 1017,9 10 0,0
24.08.2019 10:00:00 29,1 20,5 24 13 36 19 N 1017,5 - 0,0
24.08.2019 09:00:00 27,1 20,2 23 12 34 18 N 1017,2 - 0,0
24.08.2019 08:00:00 24,4 16,9 10 6 21 11 NNW 1017,3 10 0,0
24.08.2019 07:00:00 23,3 16,8 16 8 26 14 NNW 1017,4 - 0,0
24.08.2019 06:00:00 23,6 15,6 14 8 18 10 NNW 1017,3 - 0,0
24.08.2019 05:00:00 23,9 16,4 11 6 24 13 NW 1017,2 - 0,0
24.08.2019 04:00:00 23,2 17,2 18 10 25 14 NNW 1017,3 - 0,0
24.08.2019 03:00:00 23,1 16,2 16 9 23 12 NNW 1017,4 - 0,0
24.08.2019 02:00:00 23,6 16,4 9 5 19 10 NW 1017,6 - 0,0
24.08.2019 01:00:00 23,7 16,0 15 8 19 11 NW 1017,8 - 0,0
24.08.2019 00:00:00 22,7 16,9 11 6 14 8 NW 1018,0 - 0,0
23.08.2019 23:00:00 23,4 17,4 10 5 18 10 NNW 1018,1 - 0,0
23.08.2019 22:00:00 23,2 17,6 11 6 20 11 NNW 1018,3 - 0,0
23.08.2019 21:00:00 23,1 18,6 13 7 22 12 N 1018,3 - 0,0
23.08.2019 20:00:00 23,7 18,6 15 8 26 14 N 1018,0 12 0,0
23.08.2019 19:00:00 25,0 19,8 13 7 27 14 N 1017,9 - 0,0
23.08.2019 18:00:00 25,5 19,9 16 9 26 14 NNE 1018,0 - 0,0
23.08.2019 17:00:00 26,5 20,6 18 10 24 13 NNE 1018,1 - 0,0
23.08.2019 16:00:00 27,2 19,3 14 8 25 13 N 1018,2 - 0,0
23.08.2019 15:00:00 26,9 19,5 16 9 31 17 NNE 1018,5 - 0,0
23.08.2019 14:00:00 26,4 19,5 21 12 29 15 NNE 1018,7 - 0,0
23.08.2019 13:00:00 28,4 19,9 22 12 38 21 N 1018,8 - 0,0
23.08.2019 12:00:00 22,2 19,2 25 14 43 23 N 1019,8 - 0,0
23.08.2019 11:00:00 22,5 19,5 22 12 34 18 N 1019,9 10 0,0
23.08.2019 10:00:00 24,2 19,9 16 9 29 15 N 1018,9 - 0,0
23.08.2019 09:00:00 24,6 19,7 8 4 17 9 NW 1018,1 - 0,0
23.08.2019 08:00:00 24,2 18,4 10 5 18 10 NNW 1018,0 - 0,0
23.08.2019 07:00:00 24,2 17,7 11 6 18 10 NNW 1017,8 - 0,0
23.08.2019 06:00:00 23,4 17,4 12 6 19 11 NW 1017,1 - 0,0
23.08.2019 05:00:00 24,4 17,1 5 3 20 11 ESE 1016,9 10 0,0
23.08.2019 04:00:00 23,3 18,2 6 3 13 7 SW 1017,4 - 0,0
23.08.2019 03:00:00 24,0 18,4 13 7 20 11 WSW 1017,5 - 0,0
23.08.2019 02:00:00 24,6 19,7 12 7 22 12 SSW 1017,7 - 0,0
23.08.2019 01:00:00 24,2 18,6 17 9 24 13 SW 1018,0 - 0,0
23.08.2019 00:00:00 23,6 18,5 16 9 21 11 SSW 1018,3 - 0,0
22.08.2019 23:00:00 24,5 21,6 5 3 13 7 W 1018,2 - 0,0
22.08.2019 22:00:00 24,5 22,0 4 2 16 9 W 1018,6 - 0,0
22.08.2019 21:00:00 25,3 22,0 10 5 23 13 N 1018,1 - 0,0
22.08.2019 20:00:00 26,3 22,4 14 8 20 11 NNE 1017,4 - 0,0
22.08.2019 19:00:00 27,3 21,6 11 6 18 10 NE 1016,8 - 0,0
22.08.2019 18:00:00 28,5 22,3 7 4 20 11 SSE 1017,0 - 0,0
22.08.2019 17:00:00 26,9 21,4 0 0 12 7 N 1018,0 - 0,0
22.08.2019 16:00:00 26,8 22,6 10 5 22 12 ENE 1017,9 - 0,0
22.08.2019 15:00:00 27,4 23,0 15 8 24 13 NE 1018,1 - 0,0
22.08.2019 14:00:00 27,5 22,9 11 6 20 11 ENE 1018,3 20 0,0
22.08.2019 13:00:00 27,9 22,8 10 6 21 11 ENE 1018,5 - 0,0
22.08.2019 12:00:00 27,6 22,5 15 8 21 11 ENE 1018,3 - 0,0
22.08.2019 11:00:00 28,2 22,4 12 6 24 13 ENE 1018,3 20 0,0
22.08.2019 10:00:00 28,0 22,2 13 7 19 10 NE 1018,0 - 0,0
22.08.2019 09:00:00 26,2 22,9 3 2 6 3 ENE 1017,8 - 0,0
22.08.2019 08:00:00 25,1 22,2 0 0 4 2 N 1017,5 12 0,0
22.08.2019 07:00:00 24,2 20,9 4 2 8 5 WNW 1017,2 - 0,0
22.08.2019 06:00:00 23,7 20,8 5 3 7 4 SE 1017,0 - 0,0
22.08.2019 05:00:00 23,9 21,0 4 2 10 5 SSE 1017,0 12 0,0
22.08.2019 04:00:00 23,2 20,5 10 5 13 7 WSW 1017,1 - 0,0
22.08.2019 03:00:00 23,5 21,4 0 0 4 2 N 1017,2 - 0,0
22.08.2019 02:00:00 24,2 22,3 3 2 4 2 ENE 1017,3 - 0,0
22.08.2019 01:00:00 24,3 22,2 3 2 9 5 SW 1017,7 - 0,0
22.08.2019 00:00:00 24,0 21,9 8 4 9 5 SW 1017,9 - 0,0
21.08.2019 23:00:00 24,3 22,0 6 3 - - SW 1017,7 - 0,0
21.08.2019 22:00:00 24,7 22,0 4 2 5 3 SW 1017,5 - 0,0
21.08.2019 21:00:00 25,4 22,1 0 0 5 3 N 1017,1 - 0,0
21.08.2019 20:00:00 26,1 22,0 2 1 10 5 SSE 1016,8 - 0,0
21.08.2019 19:00:00 26,9 22,3 6 3 18 10 E 1016,5 - 0,0
21.08.2019 18:00:00 27,6 22,3 13 7 23 12 NE 1016,7 - 0,0
21.08.2019 17:00:00 27,9 22,6 13 7 22 12 ENE 1016,6 - 0,0
21.08.2019 16:00:00 28,5 23,0 12 7 23 13 E 1016,8 - 0,0
21.08.2019 15:00:00 28,5 23,0 14 8 24 13 E 1017,0 - 0,0
21.08.2019 14:00:00 28,1 22,6 14 7 26 14 E 1017,3 - 0,0
21.08.2019 13:00:00 27,8 22,5 15 8 27 15 E 1017,5 - 0,0
21.08.2019 12:00:00 28,1 22,6 16 9 24 13 E 1017,7 - 0,0
21.08.2019 11:00:00 28,3 21,6 11 6 20 11 E 1017,8 - 0,0
21.08.2019 10:00:00 28,7 21,7 8 5 15 8 ENE 1017,6 - 0,0
21.08.2019 09:00:00 26,4 20,3 8 4 15 8 N 1017,6 - 0,0
21.08.2019 08:00:00 24,4 18,8 10 6 14 8 NNW 1017,5 18 0,0
21.08.2019 07:00:00 23,1 18,6 13 7 18 10 NNW 1017,2 - 0,0
21.08.2019 06:00:00 23,9 22,7 5 3 11 6 WNW 1016,8 - 0,0
21.08.2019 05:00:00 23,5 21,9 7 4 10 5 WSW 1016,6 18 0,0
21.08.2019 04:00:00 24,2 22,1 3 1 9 5 W 1016,6 - 0,0
21.08.2019 03:00:00 23,9 21,2 8 4 14 8 SW 1016,7 - 0,0
21.08.2019 02:00:00 23,0 21,1 14 7 17 9 SW 1016,7 - 0,0
21.08.2019 01:00:00 23,2 20,7 13 7 17 9 SW 1017,0 - 0,0
21.08.2019 00:00:00 23,1 18,8 14 7 18 10 SW 1017,1 - 0,0
20.08.2019 23:00:00 22,9 19,3 13 7 16 9 SW 1017,1 - 0,0
20.08.2019 22:00:00 23,3 21,0 14 8 17 9 SSW 1017,0 - 0,0
20.08.2019 21:00:00 24,1 21,4 11 6 20 11 SW 1017,0 - 0,0
20.08.2019 20:00:00 25,5 22,4 13 7 26 14 S 1016,7 - 0,0
20.08.2019 19:00:00 26,9 22,5 18 10 36 19 SSE 1016,2 - 0,0
20.08.2019 18:00:00 27,7 22,4 21 11 35 19 SSE 1016,1 - 0,0
20.08.2019 17:00:00 28,2 22,2 22 12 36 19 SSE 1016,4 15 0,0
20.08.2019 16:00:00 28,6 22,1 21 12 36 19 SSE 1016,5 - 0,0
20.08.2019 15:00:00 29,0 22,2 21 11 38 21 SSE 1016,6 - 0,0
20.08.2019 14:00:00 29,4 21,9 22 12 37 20 SSE 1017,0 - 0,0
20.08.2019 13:00:00 28,6 22,4 24 13 38 20 SSE 1017,2 - 0,0
20.08.2019 12:00:00 28,4 22,4 23 13 37 20 SSE 1017,3 - 0,0
20.08.2019 11:00:00 28,7 22,4 20 11 34 19 SSE 1017,1 15 0,0
20.08.2019 10:00:00 28,4 19,9 19 10 32 18 S 1016,7 - 0,0
20.08.2019 09:00:00 26,2 21,8 23 12 32 17 S 1016,6 - 0,0
20.08.2019 08:00:00 23,5 19,2 18 10 24 13 SSW 1016,4 - 0,0
20.08.2019 07:00:00 21,1 15,0 21 11 24 13 SSW 1016,5 - 0,0
20.08.2019 06:00:00 21,8 15,9 17 9 20 11 SW 1016,3 - 0,0
20.08.2019 05:00:00 22,1 17,0 18 10 24 13 SW 1016,4 20 0,0
20.08.2019 04:00:00 22,3 18,7 19 10 23 13 SW 1016,8 - 0,0
20.08.2019 03:00:00 23,0 18,5 17 9 20 11 SW 1017,0 - 0,0

tt = Température de l'air
td = dewpoint
ff = Vitesse du vent
fx = gusts
dd = Direction du vent
ppp = reduced air pressure
vv = visibility
rr = Quantités de précipitations

stations d'obs. à proximité